owner,sensor,date,latitude,longitude,vertical_datum,sea_water_temperature,qcFlag 
NDBC,ioos:station:NOAA.NDBC:SAUF1:1,2017-02-01T00:00:00Z,29.8570,-81.2650,0.0,16.8,2 
NDBC,ioos:station:NOAA.NDBC:SAUF1:1,2017-02-01T02:00:00Z,29.8570,-81.2650,0.0,16.8,2 
NDBC,ioos:station:NOAA.NDBC:SAUF1:1,2017-02-01T22:00:00Z,29.8570,-81.2650,0.0,17.7,2 
NDBC,ioos:station:NOAA.NDBC:SAUF1:1,2017-02-01T23:00:00Z,29.8570,-81.2650,0.0,17.7,2 
NDBC,ioos:station:NOAA.NDBC:SAUF1:1,2017-02-02T00:00:00Z,29.8570,-81.2650,0.0,17.5,2 
NDBC,ioos:station:NOAA.NDBC:SAUF1:1,2017-02-02T01:00:00Z,29.8570,-81.2650,0.0,17.4,2 
NDBC,ioos:station:NOAA.NDBC:SAUF1:1,2017-02-02T02:00:00Z,29.8570,-81.2650,0.0,17.4,2 
NDBC,ioos:station:NOAA.NDBC:SAUF1:1,2017-02-02T13:00:00Z,29.8570,-81.2650,0.0,16.5,2 
NDBC,ioos:station:NOAA.NDBC:SAUF1:1,2017-02-02T22:00:00Z,29.8570,-81.2650,0.0,18.4,2 
NDBC,ioos:station:NOAA.NDBC:SAUF1:1,2017-02-02T23:00:00Z,29.8570,-81.2650,0.0,18.5,2 
NDBC,ioos:station:NOAA.NDBC:SAUF1:1,2017-02-03T00:00:00Z,29.8570,-81.2650,0.0,18.2,2 
NDBC,ioos:station:NOAA.NDBC:SAUF1:1,2017-02-03T01:00:00Z,29.8570,-81.2650,0.0,18.2,2 
NDBC,ioos:station:NOAA.NDBC:SAUF1:1,2017-02-03T02:00:00Z,29.8570,-81.2650,0.0,18.1,2 
NDBC,ioos:station:NOAA.NDBC:SAUF1:1,2017-02-03T10:00:00Z,29.8570,-81.2650,0.0,17.7,2 
NDBC,ioos:station:NOAA.NDBC:SAUF1:1,2017-02-03T11:00:00Z,29.8570,-81.2650,0.0,17.5,2 
NDBC,ioos:station:NOAA.NDBC:SAUF1:1,2017-02-03T22:00:00Z,29.8570,-81.2650,0.0,19.3,2 
NDBC,ioos:station:NOAA.NDBC:SAUF1:1,2017-02-03T23:00:00Z,29.8570,-81.2650,0.0,19.3,2 
NDBC,ioos:station:NOAA.NDBC:SAUF1:1,2017-02-04T00:00:00Z,29.8570,-81.2650,0.0,19.1,2 
NDBC,ioos:station:NOAA.NDBC:SAUF1:1,2017-02-04T01:00:00Z,29.8570,-81.2650,0.0,18.9,2 
NDBC,ioos:station:NOAA.NDBC:SAUF1:1,2017-02-04T03:00:00Z,29.8570,-81.2650,0.0,18.7,2 
NDBC,ioos:station:NOAA.NDBC:SAUF1:1,2017-02-04T22:00:00Z,29.8570,-81.2650,0.0,17.8,2 
NDBC,ioos:station:NOAA.NDBC:SAUF1:1,2017-02-04T23:00:00Z,29.8570,-81.2650,0.0,17.4,2 
NDBC,ioos:station:NOAA.NDBC:SAUF1:1,2017-02-05T00:00:00Z,29.8570,-81.2650,0.0,17.5,2 
NDBC,ioos:station:NOAA.NDBC:SAUF1:1,2017-02-05T01:00:00Z,29.8570,-81.2650,0.0,17.6,2 
NDBC,ioos:station:NOAA.NDBC:SAUF1:1,2017-02-05T02:00:00Z,29.8570,-81.2650,0.0,17.5,2 
NDBC,ioos:station:NOAA.NDBC:SAUF1:1,2017-02-05T03:00:00Z,29.8570,-81.2650,0.0,17.4,2 
NDBC,ioos:station:NOAA.NDBC:SAUF1:1,2017-02-05T22:00:00Z,29.8570,-81.2650,0.0,17.6,2 
NDBC,ioos:station:NOAA.NDBC:SAUF1:1,2017-02-05T23:00:00Z,29.8570,-81.2650,0.0,17.6,2 
NDBC,ioos:station:NOAA.NDBC:SAUF1:1,2017-02-06T00:00:00Z,29.8570,-81.2650,0.0,17.6,2 
NDBC,ioos:station:NOAA.NDBC:SAUF1:1,2017-02-06T01:00:00Z,29.8570,-81.2650,0.0,17.5,2 
NDBC,ioos:station:NOAA.NDBC:SAUF1:1,2017-02-06T02:00:00Z,29.8570,-81.2650,0.0,17.5,2 
NDBC,ioos:station:NOAA.NDBC:SAUF1:1,2017-02-06T10:00:00Z,29.8570,-81.2650,0.0,17.2,2 
NDBC,ioos:station:NOAA.NDBC:SAUF1:1,2017-02-06T13:00:00Z,29.8570,-81.2650,0.0,17.1,2 
NDBC,ioos:station:NOAA.NDBC:SAUF1:1,2017-02-06T22:00:00Z,29.8570,-81.2650,0.0,18.7,2 
NDBC,ioos:station:NOAA.NDBC:SAUF1:1,2017-02-06T23:00:00Z,29.8570,-81.2650,0.0,18.6,2 
NDBC,ioos:station:NOAA.NDBC:SAUF1:1,2017-02-07T13:00:00Z,29.8570,-81.2650,0.0,17.9,2 
NDBC,ioos:station:NOAA.NDBC:SAUF1:1,2017-02-07T19:00:00Z,29.8570,-81.2650,0.0,19.2,2 
NDBC,ioos:station:NOAA.NDBC:SAUF1:1,2017-02-07T21:00:00Z,29.8570,-81.2650,0.0,19.2,2 
NDBC,ioos:station:NOAA.NDBC:SAUF1:1,2017-02-07T23:00:00Z,29.8570,-81.2650,0.0,19.2,2 
NDBC,ioos:station:NOAA.NDBC:SAUF1:1,2017-02-08T00:00:00Z,29.8570,-81.2650,0.0,19.3,2 
NDBC,ioos:station:NOAA.NDBC:SAUF1:1,2017-02-08T01:00:00Z,29.8570,-81.2650,0.0,19.1,2 
NDBC,ioos:station:NOAA.NDBC:SAUF1:1,2017-02-08T02:00:00Z,29.8570,-81.2650,0.0,19.2,2 
NDBC,ioos:station:NOAA.NDBC:SAUF1:1,2017-02-08T13:00:00Z,29.8570,-81.2650,0.0,17.8,2 
NDBC,ioos:station:NOAA.NDBC:SAUF1:1,2017-02-08T19:00:00Z,29.8570,-81.2650,0.0,18.7,2 
NDBC,ioos:station:NOAA.NDBC:SAUF1:1,2017-02-08T22:00:00Z,29.8570,-81.2650,0.0,18.2,2 
NDBC,ioos:station:NOAA.NDBC:SAUF1:1,2017-02-08T23:00:00Z,29.8570,-81.2650,0.0,18.3,2 
NDBC,ioos:station:NOAA.NDBC:SAUF1:1,2017-02-09T01:00:00Z,29.8570,-81.2650,0.0,18.3,2 
NDBC,ioos:station:NOAA.NDBC:SAUF1:1,2017-02-09T02:00:00Z,29.8570,-81.2650,0.0,18.2,2 
NDBC,ioos:station:NOAA.NDBC:SAUF1:1,2017-02-09T13:00:00Z,29.8570,-81.2650,0.0,18.4,2 
NDBC,ioos:station:NOAA.NDBC:SAUF1:1,2017-02-09T22:00:00Z,29.8570,-81.2650,0.0,19.3,2 
NDBC,ioos:station:NOAA.NDBC:SAUF1:1,2017-02-10T01:00:00Z,29.8570,-81.2650,0.0,18.8,2 
NDBC,ioos:station:NOAA.NDBC:SAUF1:1,2017-02-10T02:00:00Z,29.8570,-81.2650,0.0,18.5,2 
NDBC,ioos:station:NOAA.NDBC:SAUF1:1,2017-02-10T03:00:00Z,29.8570,-81.2650,0.0,18.3,2 
NDBC,ioos:station:NOAA.NDBC:SAUF1:1,2017-02-10T04:00:00Z,29.8570,-81.2650,0.0,18.0,2 
NDBC,ioos:station:NOAA.NDBC:SAUF1:1,2017-02-10T22:00:00Z,29.8570,-81.2650,0.0,18.6,2 
NDBC,ioos:station:NOAA.NDBC:SAUF1:1,2017-02-10T23:00:00Z,29.8570,-81.2650,0.0,18.5,2 
NDBC,ioos:station:NOAA.NDBC:SAUF1:1,2017-02-11T00:00:00Z,29.8570,-81.2650,0.0,18.3,2 
NDBC,ioos:station:NOAA.NDBC:SAUF1:1,2017-02-11T01:00:00Z,29.8570,-81.2650,0.0,18.2,2 
NDBC,ioos:station:NOAA.NDBC:SAUF1:1,2017-02-11T02:00:00Z,29.8570,-81.2650,0.0,18.1,2 
NDBC,ioos:station:NOAA.NDBC:SAUF1:1,2017-02-11T22:00:00Z,29.8570,-81.2650,0.0,18.5,2 
NDBC,ioos:station:NOAA.NDBC:SAUF1:1,2017-02-11T23:00:00Z,29.8570,-81.2650,0.0,18.7,2 
NDBC,ioos:station:NOAA.NDBC:SAUF1:1,2017-02-12T00:00:00Z,29.8570,-81.2650,0.0,18.6,2 
NDBC,ioos:station:NOAA.NDBC:SAUF1:1,2017-02-12T01:00:00Z,29.8570,-81.2650,0.0,18.5,2 
NDBC,ioos:station:NOAA.NDBC:SAUF1:1,2017-02-12T02:00:00Z,29.8570,-81.2650,0.0,18.5,2 
NDBC,ioos:station:NOAA.NDBC:SAUF1:1,2017-02-12T13:00:00Z,29.8570,-81.2650,0.0,17.6,2 
NDBC,ioos:station:NOAA.NDBC:SAUF1:1,2017-02-12T22:00:00Z,29.8570,-81.2650,0.0,18.9,2 
NDBC,ioos:station:NOAA.NDBC:SAUF1:1,2017-02-12T23:00:00Z,29.8570,-81.2650,0.0,18.7,2 
NDBC,ioos:station:NOAA.NDBC:SAUF1:1,2017-02-13T00:00:00Z,29.8570,-81.2650,0.0,18.5,2 
NDBC,ioos:station:NOAA.NDBC:SAUF1:1,2017-02-13T01:00:00Z,29.8570,-81.2650,0.0,18.4,2 
NDBC,ioos:station:NOAA.NDBC:SAUF1:1,2017-02-13T02:00:00Z,29.8570,-81.2650,0.0,18.3,2 
NDBC,ioos:station:NOAA.NDBC:SAUF1:1,2017-02-13T08:00:00Z,29.8570,-81.2650,0.0,18.0,2 
NDBC,ioos:station:NOAA.NDBC:SAUF1:1,2017-02-13T13:00:00Z,29.8570,-81.2650,0.0,17.9,2 
NDBC,ioos:station:NOAA.NDBC:SAUF1:1,2017-02-14T01:00:00Z,29.8570,-81.2650,0.0,18.6,2 
NDBC,ioos:station:NOAA.NDBC:SAUF1:1,2017-02-14T02:00:00Z,29.8570,-81.2650,0.0,18.5,2 
NDBC,ioos:station:NOAA.NDBC:SAUF1:1,2017-02-14T10:00:00Z,29.8570,-81.2650,0.0,18.2,2 
NDBC,ioos:station:NOAA.NDBC:SAUF1:1,2017-02-15T01:00:00Z,29.8570,-81.2650,0.0,19.0,2 
NDBC,ioos:station:NOAA.NDBC:SAUF1:1,2017-02-15T02:00:00Z,29.8570,-81.2650,0.0,19.0,2 
NDBC,ioos:station:NOAA.NDBC:SAUF1:1,2017-02-15T13:00:00Z,29.8570,-81.2650,0.0,18.3,2 
NDBC,ioos:station:NOAA.NDBC:SAUF1:1,2017-02-16T01:00:00Z,29.8570,-81.2650,0.0,19.1,2 
NDBC,ioos:station:NOAA.NDBC:SAUF1:1,2017-02-16T13:00:00Z,29.8570,-81.2650,0.0,17.8,2 
NDBC,ioos:station:NOAA.NDBC:SAUF1:1,2017-02-16T23:00:00Z,29.8570,-81.2650,0.0,18.8,2 
NDBC,ioos:station:NOAA.NDBC:SAUF1:1,2017-02-17T13:00:00Z,29.8570,-81.2650,0.0,17.3,2 
NDBC,ioos:station:NOAA.NDBC:SAUF1:1,2017-02-17T16:00:00Z,29.8570,-81.2650,0.0,17.8,2 
NDBC,ioos:station:NOAA.NDBC:SAUF1:1,2017-02-17T23:00:00Z,29.8570,-81.2650,0.0,18.9,2 
NDBC,ioos:station:NOAA.NDBC:SAUF1:1,2017-02-18T10:00:00Z,29.8570,-81.2650,0.0,17.9,2 
NDBC,ioos:station:NOAA.NDBC:SAUF1:1,2017-02-18T13:00:00Z,29.8570,-81.2650,0.0,17.8,2 
NDBC,ioos:station:NOAA.NDBC:SAUF1:1,2017-02-18T23:00:00Z,29.8570,-81.2650,0.0,18.9,2 
NDBC,ioos:station:NOAA.NDBC:SAUF1:1,2017-02-19T01:00:00Z,29.8570,-81.2650,0.0,18.8,2 
NDBC,ioos:station:NOAA.NDBC:SAUF1:1,2017-02-19T23:00:00Z,29.8570,-81.2650,0.0,20.1,2 
NDBC,ioos:station:NOAA.NDBC:SAUF1:1,2017-02-20T00:00:00Z,29.8570,-81.2650,0.0,19.9,2 
NDBC,ioos:station:NOAA.NDBC:SAUF1:1,2017-02-20T23:00:00Z,29.8570,-81.2650,0.0,20.4,2 
NDBC,ioos:station:NOAA.NDBC:SAUF1:1,2017-02-21T00:00:00Z,29.8570,-81.2650,0.0,20.4,2 
NDBC,ioos:station:NOAA.NDBC:SAUF1:1,2017-02-21T01:00:00Z,29.8570,-81.2650,0.0,20.6,2 
NDBC,ioos:station:NOAA.NDBC:SAUF1:1,2017-02-21T02:00:00Z,29.8570,-81.2650,0.0,20.5,2 
NDBC,ioos:station:NOAA.NDBC:SAUF1:1,2017-02-21T03:00:00Z,29.8570,-81.2650,0.0,20.4,2 
NDBC,ioos:station:NOAA.NDBC:SAUF1:1,2017-02-21T04:00:00Z,29.8570,-81.2650,0.0,20.2,2 
NDBC,ioos:station:NOAA.NDBC:SAUF1:1,2017-02-21T05:00:00Z,29.8570,-81.2650,0.0,20.1,2 
NDBC,ioos:station:NOAA.NDBC:SAUF1:1,2017-02-21T06:00:00Z,29.8570,-81.2650,0.0,19.9,2 
NDBC,ioos:station:NOAA.NDBC:SAUF1:1,2017-02-21T07:00:00Z,29.8570,-81.2650,0.0,19.8,2 
NDBC,ioos:station:NOAA.NDBC:SAUF1:1,2017-02-21T08:00:00Z,29.8570,-81.2650,0.0,19.7,2 
NDBC,ioos:station:NOAA.NDBC:SAUF1:1,2017-02-21T09:00:00Z,29.8570,-81.2650,0.0,19.7,2 
NDBC,ioos:station:NOAA.NDBC:SAUF1:1,2017-02-21T10:00:00Z,29.8570,-81.2650,0.0,19.7,2 
NDBC,ioos:station:NOAA.NDBC:SAUF1:1,2017-02-21T11:00:00Z,29.8570,-81.2650,0.0,19.6,2 
NDBC,ioos:station:NOAA.NDBC:SAUF1:1,2017-02-21T12:00:00Z,29.8570,-81.2650,0.0,19.6,2 
NDBC,ioos:station:NOAA.NDBC:SAUF1:1,2017-02-21T13:00:00Z,29.8570,-81.2650,0.0,19.5,2 
NDBC,ioos:station:NOAA.NDBC:SAUF1:1,2017-02-21T14:00:00Z,29.8570,-81.2650,0.0,19.5,2 
NDBC,ioos:station:NOAA.NDBC:SAUF1:1,2017-02-21T15:00:00Z,29.8570,-81.2650,0.0,19.5,2 
NDBC,ioos:station:NOAA.NDBC:SAUF1:1,2017-02-21T16:00:00Z,29.8570,-81.2650,0.0,19.7,2 
NDBC,ioos:station:NOAA.NDBC:SAUF1:1,2017-02-21T17:00:00Z,29.8570,-81.2650,0.0,19.9,2 
NDBC,ioos:station:NOAA.NDBC:SAUF1:1,2017-02-21T18:00:00Z,29.8570,-81.2650,0.0,20.0,2 
NDBC,ioos:station:NOAA.NDBC:SAUF1:1,2017-02-21T19:00:00Z,29.8570,-81.2650,0.0,20.2,2 
NDBC,ioos:station:NOAA.NDBC:SAUF1:1,2017-02-21T20:00:00Z,29.8570,-81.2650,0.0,20.3,2 
NDBC,ioos:station:NOAA.NDBC:SAUF1:1,2017-02-21T21:00:00Z,29.8570,-81.2650,0.0,20.1,2 
NDBC,ioos:station:NOAA.NDBC:SAUF1:1,2017-02-21T22:00:00Z,29.8570,-81.2650,0.0,19.8,2 
NDBC,ioos:station:NOAA.NDBC:SAUF1:1,2017-02-21T23:00:00Z,29.8570,-81.2650,0.0,20.3,2 
NDBC,ioos:station:NOAA.NDBC:SAUF1:1,2017-02-22T00:00:00Z,29.8570,-81.2650,0.0,20.0,2 
NDBC,ioos:station:NOAA.NDBC:SAUF1:1,2017-02-22T01:00:00Z,29.8570,-81.2650,0.0,20.0,2 
NDBC,ioos:station:NOAA.NDBC:SAUF1:1,2017-02-22T02:00:00Z,29.8570,-81.2650,0.0,20.0,2 
NDBC,ioos:station:NOAA.NDBC:SAUF1:1,2017-02-22T03:00:00Z,29.8570,-81.2650,0.0,20.0,2 
NDBC,ioos:station:NOAA.NDBC:SAUF1:1,2017-02-22T04:00:00Z,29.8570,-81.2650,0.0,19.9,2 
NDBC,ioos:station:NOAA.NDBC:SAUF1:1,2017-02-22T05:00:00Z,29.8570,-81.2650,0.0,19.9,2 
NDBC,ioos:station:NOAA.NDBC:SAUF1:1,2017-02-22T06:00:00Z,29.8570,-81.2650,0.0,19.9,2 
NDBC,ioos:station:NOAA.NDBC:SAUF1:1,2017-02-22T07:00:00Z,29.8570,-81.2650,0.0,19.9,2 
NDBC,ioos:station:NOAA.NDBC:SAUF1:1,2017-02-22T08:00:00Z,29.8570,-81.2650,0.0,19.9,2 
NDBC,ioos:station:NOAA.NDBC:SAUF1:1,2017-02-22T09:00:00Z,29.8570,-81.2650,0.0,19.8,2 
NDBC,ioos:station:NOAA.NDBC:SAUF1:1,2017-02-22T10:00:00Z,29.8570,-81.2650,0.0,19.8,2 
NDBC,ioos:station:NOAA.NDBC:SAUF1:1,2017-02-22T11:00:00Z,29.8570,-81.2650,0.0,19.7,2 
NDBC,ioos:station:NOAA.NDBC:SAUF1:1,2017-02-22T12:00:00Z,29.8570,-81.2650,0.0,19.7,2 
NDBC,ioos:station:NOAA.NDBC:SAUF1:1,2017-02-22T13:00:00Z,29.8570,-81.2650,0.0,19.7,2 
NDBC,ioos:station:NOAA.NDBC:SAUF1:1,2017-02-22T14:00:00Z,29.8570,-81.2650,0.0,19.6,2 
NDBC,ioos:station:NOAA.NDBC:SAUF1:1,2017-02-22T15:00:00Z,29.8570,-81.2650,0.0,19.6,2 
NDBC,ioos:station:NOAA.NDBC:SAUF1:1,2017-02-22T16:00:00Z,29.8570,-81.2650,0.0,19.8,2 
NDBC,ioos:station:NOAA.NDBC:SAUF1:1,2017-02-22T17:00:00Z,29.8570,-81.2650,0.0,19.9,2 
NDBC,ioos:station:NOAA.NDBC:SAUF1:1,2017-02-22T18:00:00Z,29.8570,-81.2650,0.0,19.9,2 
NDBC,ioos:station:NOAA.NDBC:SAUF1:1,2017-02-22T19:00:00Z,29.8570,-81.2650,0.0,19.9,2 
NDBC,ioos:station:NOAA.NDBC:SAUF1:1,2017-02-22T20:00:00Z,29.8570,-81.2650,0.0,20.0,2 
NDBC,ioos:station:NOAA.NDBC:SAUF1:1,2017-02-22T21:00:00Z,29.8570,-81.2650,0.0,19.9,2 
NDBC,ioos:station:NOAA.NDBC:SAUF1:1,2017-02-22T22:00:00Z,29.8570,-81.2650,0.0,19.9,2 
NDBC,ioos:station:NOAA.NDBC:SAUF1:1,2017-02-22T23:00:00Z,29.8570,-81.2650,0.0,19.9,2 
NDBC,ioos:station:NOAA.NDBC:SAUF1:1,2017-02-23T00:00:00Z,29.8570,-81.2650,0.0,19.8,2 
NDBC,ioos:station:NOAA.NDBC:SAUF1:1,2017-02-23T01:00:00Z,29.8570,-81.2650,0.0,19.7,2 
NDBC,ioos:station:NOAA.NDBC:SAUF1:1,2017-02-23T02:00:00Z,29.8570,-81.2650,0.0,19.6,2 
NDBC,ioos:station:NOAA.NDBC:SAUF1:1,2017-02-23T03:00:00Z,29.8570,-81.2650,0.0,19.5,2 
NDBC,ioos:station:NOAA.NDBC:SAUF1:1,2017-02-23T04:00:00Z,29.8570,-81.2650,0.0,19.4,2 
NDBC,ioos:station:NOAA.NDBC:SAUF1:1,2017-02-23T05:00:00Z,29.8570,-81.2650,0.0,19.3,2 
NDBC,ioos:station:NOAA.NDBC:SAUF1:1,2017-02-23T06:00:00Z,29.8570,-81.2650,0.0,19.3,2 
NDBC,ioos:station:NOAA.NDBC:SAUF1:1,2017-02-23T07:00:00Z,29.8570,-81.2650,0.0,19.3,2 
NDBC,ioos:station:NOAA.NDBC:SAUF1:1,2017-02-23T08:00:00Z,29.8570,-81.2650,0.0,19.3,2 
NDBC,ioos:station:NOAA.NDBC:SAUF1:1,2017-02-23T09:00:00Z,29.8570,-81.2650,0.0,19.3,2 
NDBC,ioos:station:NOAA.NDBC:SAUF1:1,2017-02-23T10:00:00Z,29.8570,-81.2650,0.0,19.4,2 
NDBC,ioos:station:NOAA.NDBC:SAUF1:1,2017-02-23T11:00:00Z,29.8570,-81.2650,0.0,19.3,2 
NDBC,ioos:station:NOAA.NDBC:SAUF1:1,2017-02-23T12:00:00Z,29.8570,-81.2650,0.0,19.3,2 
NDBC,ioos:station:NOAA.NDBC:SAUF1:1,2017-02-23T13:00:00Z,29.8570,-81.2650,0.0,19.3,2 
NDBC,ioos:station:NOAA.NDBC:SAUF1:1,2017-02-23T14:00:00Z,29.8570,-81.2650,0.0,19.4,2 
NDBC,ioos:station:NOAA.NDBC:SAUF1:1,2017-02-23T15:00:00Z,29.8570,-81.2650,0.0,19.5,2 
NDBC,ioos:station:NOAA.NDBC:SAUF1:1,2017-02-23T16:00:00Z,29.8570,-81.2650,0.0,19.6,2 
NDBC,ioos:station:NOAA.NDBC:SAUF1:1,2017-02-23T17:00:00Z,29.8570,-81.2650,0.0,19.6,2 
NDBC,ioos:station:NOAA.NDBC:SAUF1:1,2017-02-23T18:00:00Z,29.8570,-81.2650,0.0,19.7,2 
NDBC,ioos:station:NOAA.NDBC:SAUF1:1,2017-02-23T19:00:00Z,29.8570,-81.2650,0.0,19.8,2 
NDBC,ioos:station:NOAA.NDBC:SAUF1:1,2017-02-23T20:00:00Z,29.8570,-81.2650,0.0,19.8,2 
NDBC,ioos:station:NOAA.NDBC:SAUF1:1,2017-02-23T21:00:00Z,29.8570,-81.2650,0.0,19.6,2 
NDBC,ioos:station:NOAA.NDBC:SAUF1:1,2017-02-23T22:00:00Z,29.8570,-81.2650,0.0,19.6,2 
NDBC,ioos:station:NOAA.NDBC:SAUF1:1,2017-02-23T23:00:00Z,29.8570,-81.2650,0.0,19.6,2 
NDBC,ioos:station:NOAA.NDBC:SAUF1:1,2017-02-24T00:00:00Z,29.8570,-81.2650,0.0,19.6,2 
NDBC,ioos:station:NOAA.NDBC:SAUF1:1,2017-02-24T01:00:00Z,29.8570,-81.2650,0.0,19.5,2 
NDBC,ioos:station:NOAA.NDBC:SAUF1:1,2017-02-24T03:00:00Z,29.8570,-81.2650,0.0,19.5,2 
NDBC,ioos:station:NOAA.NDBC:SAUF1:1,2017-02-24T04:00:00Z,29.8570,-81.2650,0.0,19.4,2 
NDBC,ioos:station:NOAA.NDBC:SAUF1:1,2017-02-24T05:00:00Z,29.8570,-81.2650,0.0,19.4,2 
NDBC,ioos:station:NOAA.NDBC:SAUF1:1,2017-02-24T06:00:00Z,29.8570,-81.2650,0.0,19.3,2 
NDBC,ioos:station:NOAA.NDBC:SAUF1:1,2017-02-24T07:00:00Z,29.8570,-81.2650,0.0,19.2,2 
NDBC,ioos:station:NOAA.NDBC:SAUF1:1,2017-02-24T08:00:00Z,29.8570,-81.2650,0.0,19.1,2 
NDBC,ioos:station:NOAA.NDBC:SAUF1:1,2017-02-24T09:00:00Z,29.8570,-81.2650,0.0,19.1,2 
NDBC,ioos:station:NOAA.NDBC:SAUF1:1,2017-02-24T10:00:00Z,29.8570,-81.2650,0.0,19.1,2 
NDBC,ioos:station:NOAA.NDBC:SAUF1:1,2017-02-24T11:00:00Z,29.8570,-81.2650,0.0,19.1,2 
NDBC,ioos:station:NOAA.NDBC:SAUF1:1,2017-02-24T12:00:00Z,29.8570,-81.2650,0.0,19.1,2 
NDBC,ioos:station:NOAA.NDBC:SAUF1:1,2017-02-24T13:00:00Z,29.8570,-81.2650,0.0,19.1,2 
NDBC,ioos:station:NOAA.NDBC:SAUF1:1,2017-02-24T14:00:00Z,29.8570,-81.2650,0.0,19.1,2 
NDBC,ioos:station:NOAA.NDBC:SAUF1:1,2017-02-24T15:00:00Z,29.8570,-81.2650,0.0,19.2,2 
NDBC,ioos:station:NOAA.NDBC:SAUF1:1,2017-02-24T16:00:00Z,29.8570,-81.2650,0.0,19.4,2 
NDBC,ioos:station:NOAA.NDBC:SAUF1:1,2017-02-24T17:00:00Z,29.8570,-81.2650,0.0,19.6,2 
NDBC,ioos:station:NOAA.NDBC:SAUF1:1,2017-02-24T18:00:00Z,29.8570,-81.2650,0.0,19.8,2 
NDBC,ioos:station:NOAA.NDBC:SAUF1:1,2017-02-24T19:00:00Z,29.8570,-81.2650,0.0,19.8,2 
NDBC,ioos:station:NOAA.NDBC:SAUF1:1,2017-02-24T20:00:00Z,29.8570,-81.2650,0.0,19.8,2 
NDBC,ioos:station:NOAA.NDBC:SAUF1:1,2017-02-24T21:00:00Z,29.8570,-81.2650,0.0,19.8,2 
NDBC,ioos:station:NOAA.NDBC:SAUF1:1,2017-02-24T22:00:00Z,29.8570,-81.2650,0.0,19.8,2 
NDBC,ioos:station:NOAA.NDBC:SAUF1:1,2017-02-24T23:00:00Z,29.8570,-81.2650,0.0,19.9,2 
NDBC,ioos:station:NOAA.NDBC:SAUF1:1,2017-02-25T00:00:00Z,29.8570,-81.2650,0.0,19.6,2 
NDBC,ioos:station:NOAA.NDBC:SAUF1:1,2017-02-25T01:00:00Z,29.8570,-81.2650,0.0,19.7,2 
NDBC,ioos:station:NOAA.NDBC:SAUF1:1,2017-02-25T02:00:00Z,29.8570,-81.2650,0.0,19.7,2 
NDBC,ioos:station:NOAA.NDBC:SAUF1:1,2017-02-25T03:00:00Z,29.8570,-81.2650,0.0,19.6,2 
NDBC,ioos:station:NOAA.NDBC:SAUF1:1,2017-02-25T04:00:00Z,29.8570,-81.2650,0.0,19.5,2 
NDBC,ioos:station:NOAA.NDBC:SAUF1:1,2017-02-25T05:00:00Z,29.8570,-81.2650,0.0,19.5,2 
NDBC,ioos:station:NOAA.NDBC:SAUF1:1,2017-02-25T06:00:00Z,29.8570,-81.2650,0.0,19.5,2 
NDBC,ioos:station:NOAA.NDBC:SAUF1:1,2017-02-25T07:00:00Z,29.8570,-81.2650,0.0,19.5,2 
NDBC,ioos:station:NOAA.NDBC:SAUF1:1,2017-02-25T08:00:00Z,29.8570,-81.2650,0.0,19.5,2 
NDBC,ioos:station:NOAA.NDBC:SAUF1:1,2017-02-25T09:00:00Z,29.8570,-81.2650,0.0,19.5,2 
NDBC,ioos:station:NOAA.NDBC:SAUF1:1,2017-02-25T10:00:00Z,29.8570,-81.2650,0.0,19.5,2 
NDBC,ioos:station:NOAA.NDBC:SAUF1:1,2017-02-25T11:00:00Z,29.8570,-81.2650,0.0,19.5,2 
NDBC,ioos:station:NOAA.NDBC:SAUF1:1,2017-02-25T12:00:00Z,29.8570,-81.2650,0.0,19.4,2 
NDBC,ioos:station:NOAA.NDBC:SAUF1:1,2017-02-25T13:00:00Z,29.8570,-81.2650,0.0,19.4,2 
NDBC,ioos:station:NOAA.NDBC:SAUF1:1,2017-02-25T14:00:00Z,29.8570,-81.2650,0.0,19.5,2 
NDBC,ioos:station:NOAA.NDBC:SAUF1:1,2017-02-25T15:00:00Z,29.8570,-81.2650,0.0,19.4,2 
NDBC,ioos:station:NOAA.NDBC:SAUF1:1,2017-02-25T16:00:00Z,29.8570,-81.2650,0.0,19.5,2 
NDBC,ioos:station:NOAA.NDBC:SAUF1:1,2017-02-25T17:00:00Z,29.8570,-81.2650,0.0,19.6,2 
NDBC,ioos:station:NOAA.NDBC:SAUF1:1,2017-02-25T18:00:00Z,29.8570,-81.2650,0.0,19.8,2 
NDBC,ioos:station:NOAA.NDBC:SAUF1:1,2017-02-25T19:00:00Z,29.8570,-81.2650,0.0,19.7,2 
NDBC,ioos:station:NOAA.NDBC:SAUF1:1,2017-02-25T20:00:00Z,29.8570,-81.2650,0.0,19.9,2 
NDBC,ioos:station:NOAA.NDBC:SAUF1:1,2017-02-25T21:00:00Z,29.8570,-81.2650,0.0,19.9,2 
NDBC,ioos:station:NOAA.NDBC:SAUF1:1,2017-02-25T22:00:00Z,29.8570,-81.2650,0.0,19.9,2 
NDBC,ioos:station:NOAA.NDBC:SAUF1:1,2017-02-25T23:00:00Z,29.8570,-81.2650,0.0,19.9,2 
NDBC,ioos:station:NOAA.NDBC:SAUF1:1,2017-02-26T00:00:00Z,29.8570,-81.2650,0.0,19.7,2 
NDBC,ioos:station:NOAA.NDBC:SAUF1:1,2017-02-26T01:00:00Z,29.8570,-81.2650,0.0,19.7,2 
NDBC,ioos:station:NOAA.NDBC:SAUF1:1,2017-02-26T03:00:00Z,29.8570,-81.2650,0.0,19.6,2 
NDBC,ioos:station:NOAA.NDBC:SAUF1:1,2017-02-26T04:00:00Z,29.8570,-81.2650,0.0,19.4,2 
NDBC,ioos:station:NOAA.NDBC:SAUF1:1,2017-02-26T05:00:00Z,29.8570,-81.2650,0.0,19.2,2 
NDBC,ioos:station:NOAA.NDBC:SAUF1:1,2017-02-26T06:00:00Z,29.8570,-81.2650,0.0,19.1,2 
NDBC,ioos:station:NOAA.NDBC:SAUF1:1,2017-02-26T07:00:00Z,29.8570,-81.2650,0.0,18.9,2 
NDBC,ioos:station:NOAA.NDBC:SAUF1:1,2017-02-26T08:00:00Z,29.8570,-81.2650,0.0,18.6,2 
NDBC,ioos:station:NOAA.NDBC:SAUF1:1,2017-02-26T09:00:00Z,29.8570,-81.2650,0.0,18.6,2 
NDBC,ioos:station:NOAA.NDBC:SAUF1:1,2017-02-26T10:00:00Z,29.8570,-81.2650,0.0,18.4,2 
NDBC,ioos:station:NOAA.NDBC:SAUF1:1,2017-02-26T11:00:00Z,29.8570,-81.2650,0.0,18.4,2 
NDBC,ioos:station:NOAA.NDBC:SAUF1:1,2017-02-26T12:00:00Z,29.8570,-81.2650,0.0,18.3,2 
NDBC,ioos:station:NOAA.NDBC:SAUF1:1,2017-02-26T13:00:00Z,29.8570,-81.2650,0.0,18.2,2 
NDBC,ioos:station:NOAA.NDBC:SAUF1:1,2017-02-26T14:00:00Z,29.8570,-81.2650,0.0,18.1,2 
NDBC,ioos:station:NOAA.NDBC:SAUF1:1,2017-02-26T15:00:00Z,29.8570,-81.2650,0.0,18.2,2 
NDBC,ioos:station:NOAA.NDBC:SAUF1:1,2017-02-26T16:00:00Z,29.8570,-81.2650,0.0,18.5,2 
NDBC,ioos:station:NOAA.NDBC:SAUF1:1,2017-02-26T17:00:00Z,29.8570,-81.2650,0.0,18.9,2 
NDBC,ioos:station:NOAA.NDBC:SAUF1:1,2017-02-26T18:00:00Z,29.8570,-81.2650,0.0,19.3,2 
NDBC,ioos:station:NOAA.NDBC:SAUF1:1,2017-02-26T19:00:00Z,29.8570,-81.2650,0.0,19.6,2 
NDBC,ioos:station:NOAA.NDBC:SAUF1:1,2017-02-26T20:00:00Z,29.8570,-81.2650,0.0,19.6,2 
NDBC,ioos:station:NOAA.NDBC:SAUF1:1,2017-02-26T21:00:00Z,29.8570,-81.2650,0.0,19.7,2 
NDBC,ioos:station:NOAA.NDBC:SAUF1:1,2017-02-26T22:00:00Z,29.8570,-81.2650,0.0,19.6,2 
NDBC,ioos:station:NOAA.NDBC:SAUF1:1,2017-02-26T23:00:00Z,29.8570,-81.2650,0.0,19.5,2 
NDBC,ioos:station:NOAA.NDBC:SAUF1:1,2017-02-27T00:00:00Z,29.8570,-81.2650,0.0,19.4,2 
NDBC,ioos:station:NOAA.NDBC:SAUF1:1,2017-02-27T01:00:00Z,29.8570,-81.2650,0.0,19.3,2 
NDBC,ioos:station:NOAA.NDBC:SAUF1:1,2017-02-27T02:00:00Z,29.8570,-81.2650,0.0,19.2,2 
NDBC,ioos:station:NOAA.NDBC:SAUF1:1,2017-02-27T03:00:00Z,29.8570,-81.2650,0.0,18.9,2 
NDBC,ioos:station:NOAA.NDBC:SAUF1:1,2017-02-27T04:00:00Z,29.8570,-81.2650,0.0,18.8,2 
NDBC,ioos:station:NOAA.NDBC:SAUF1:1,2017-02-27T05:00:00Z,29.8570,-81.2650,0.0,18.6,2 
NDBC,ioos:station:NOAA.NDBC:SAUF1:1,2017-02-27T06:00:00Z,29.8570,-81.2650,0.0,18.6,2 
NDBC,ioos:station:NOAA.NDBC:SAUF1:1,2017-02-27T07:00:00Z,29.8570,-81.2650,0.0,18.6,2 
NDBC,ioos:station:NOAA.NDBC:SAUF1:1,2017-02-27T08:00:00Z,29.8570,-81.2650,0.0,18.5,2 
NDBC,ioos:station:NOAA.NDBC:SAUF1:1,2017-02-27T09:00:00Z,29.8570,-81.2650,0.0,18.7,2 
NDBC,ioos:station:NOAA.NDBC:SAUF1:1,2017-02-27T10:00:00Z,29.8570,-81.2650,0.0,18.8,2 
NDBC,ioos:station:NOAA.NDBC:SAUF1:1,2017-02-27T11:00:00Z,29.8570,-81.2650,0.0,18.6,2 
NDBC,ioos:station:NOAA.NDBC:SAUF1:1,2017-02-27T12:00:00Z,29.8570,-81.2650,0.0,18.5,2 
NDBC,ioos:station:NOAA.NDBC:SAUF1:1,2017-02-27T13:00:00Z,29.8570,-81.2650,0.0,18.6,2 
NDBC,ioos:station:NOAA.NDBC:SAUF1:1,2017-02-27T14:00:00Z,29.8570,-81.2650,0.0,18.5,2 
NDBC,ioos:station:NOAA.NDBC:SAUF1:1,2017-02-27T15:00:00Z,29.8570,-81.2650,0.0,18.6,2 
NDBC,ioos:station:NOAA.NDBC:SAUF1:1,2017-02-27T16:00:00Z,29.8570,-81.2650,0.0,18.9,2 
NDBC,ioos:station:NOAA.NDBC:SAUF1:1,2017-02-27T17:00:00Z,29.8570,-81.2650,0.0,19.3,2 
NDBC,ioos:station:NOAA.NDBC:SAUF1:1,2017-02-27T18:00:00Z,29.8570,-81.2650,0.0,19.5,2 
NDBC,ioos:station:NOAA.NDBC:SAUF1:1,2017-02-27T19:00:00Z,29.8570,-81.2650,0.0,19.9,2 
NDBC,ioos:station:NOAA.NDBC:SAUF1:1,2017-02-27T20:00:00Z,29.8570,-81.2650,0.0,20.1,2 
NDBC,ioos:station:NOAA.NDBC:SAUF1:1,2017-02-27T21:00:00Z,29.8570,-81.2650,0.0,20.4,2 
NDBC,ioos:station:NOAA.NDBC:SAUF1:1,2017-02-27T22:00:00Z,29.8570,-81.2650,0.0,20.4,2 
NDBC,ioos:station:NOAA.NDBC:SAUF1:1,2017-02-27T23:00:00Z,29.8570,-81.2650,0.0,20.4,2 
NDBC,ioos:station:NOAA.NDBC:SAUF1:1,2017-02-28T00:00:00Z,29.8570,-81.2650,0.0,20.4,2 
NDBC,ioos:station:NOAA.NDBC:SAUF1:1,2017-02-28T01:00:00Z,29.8570,-81.2650,0.0,20.4,2 
NDBC,ioos:station:NOAA.NDBC:SAUF1:1,2017-02-28T02:00:00Z,29.8570,-81.2650,0.0,20.3,2 
NDBC,ioos:station:NOAA.NDBC:SAUF1:1,2017-02-28T03:00:00Z,29.8570,-81.2650,0.0,20.3,2 
NDBC,ioos:station:NOAA.NDBC:SAUF1:1,2017-02-28T04:00:00Z,29.8570,-81.2650,0.0,20.2,2 
NDBC,ioos:station:NOAA.NDBC:SAUF1:1,2017-02-28T05:00:00Z,29.8570,-81.2650,0.0,20.1,2 
NDBC,ioos:station:NOAA.NDBC:SAUF1:1,2017-02-28T06:00:00Z,29.8570,-81.2650,0.0,20.1,2 
NDBC,ioos:station:NOAA.NDBC:SAUF1:1,2017-02-28T07:00:00Z,29.8570,-81.2650,0.0,20.1,2 
NDBC,ioos:station:NOAA.NDBC:SAUF1:1,2017-02-28T08:00:00Z,29.8570,-81.2650,0.0,20.0,2 
NDBC,ioos:station:NOAA.NDBC:SAUF1:1,2017-02-28T09:00:00Z,29.8570,-81.2650,0.0,19.9,2 
NDBC,ioos:station:NOAA.NDBC:SAUF1:1,2017-02-28T10:00:00Z,29.8570,-81.2650,0.0,19.9,2 
NDBC,ioos:station:NOAA.NDBC:SAUF1:1,2017-02-28T11:00:00Z,29.8570,-81.2650,0.0,19.9,2 
NDBC,ioos:station:NOAA.NDBC:SAUF1:1,2017-02-28T12:00:00Z,29.8570,-81.2650,0.0,19.8,2 
NDBC,ioos:station:NOAA.NDBC:SAUF1:1,2017-02-28T13:00:00Z,29.8570,-81.2650,0.0,19.8,2 
NDBC,ioos:station:NOAA.NDBC:SAUF1:1,2017-02-28T14:00:00Z,29.8570,-81.2650,0.0,19.8,2 
NDBC,ioos:station:NOAA.NDBC:SAUF1:1,2017-02-28T15:00:00Z,29.8570,-81.2650,0.0,19.9,2 
NDBC,ioos:station:NOAA.NDBC:SAUF1:1,2017-02-28T16:00:00Z,29.8570,-81.2650,0.0,20.0,2 
NDBC,ioos:station:NOAA.NDBC:SAUF1:1,2017-02-28T17:00:00Z,29.8570,-81.2650,0.0,20.5,2 
NDBC,ioos:station:NOAA.NDBC:SAUF1:1,2017-02-28T18:00:00Z,29.8570,-81.2650,0.0,20.8,2 
NDBC,ioos:station:NOAA.NDBC:SAUF1:1,2017-02-28T19:00:00Z,29.8570,-81.2650,0.0,21.0,2 
NDBC,ioos:station:NOAA.NDBC:SAUF1:1,2017-02-28T20:00:00Z,29.8570,-81.2650,0.0,21.3,2 